CW9546 Weather Reports


time (UTC)temp
C
wind
direction
speed
KPH
gust
KPH
rain 1hr
cm
rain 24hr
cm
rain mn
cm
humidity
%
barometer
mb
20260505022037 24 224 1.6 0.0 0.00 0.00 0.00 45 1009.1
20260505021032 24 261 1.6 0.0 0.00 0.00 0.00 45 1009.1
20260505020108 24 231 1.6 0.0 0.00 0.00 0.00 44 1008.9
20260505015040 25 304 1.6 0.0 0.00 0.00 0.00 44 1009.0
20260505013055 25 125 3.2 0.0 0.00 0.00 0.00 41 1009.0
20260505012046 25 221 1.6 0.0 0.00 0.00 0.00 41 1009.2
20260505011032 25 134 3.2 0.0 0.00 0.00 0.00 40 1009.2
20260505010059 25 236 1.6 0.0 0.00 0.00 0.00 40 1009.1
20260505005053 25 263 3.2 0.0 0.00 0.00 0.00 40 1009.1
20260505004043 26 271 1.6 0.0 0.00 0.00 0.00 39 1009.1
20260505003103 26 340 3.2 0.0 0.00 0.00 0.00 38 1009.1
20260505002048 26 349 3.2 0.0 0.00 0.00 0.00 38 1009.2
20260505001050 26 293 3.2 0.0 0.00 0.00 0.00 37 1009.2
20260505000040 26 265 3.2 0.0 0.00 0.00 0.00 37 1009.3
20260504235048 26 204 3.2 0.0 0.00 0.00 0.00 37 1009.5
20260504234043 26 296 3.2 0.0 0.00 0.00 0.00 38 1009.5
20260504233043 27 239 3.2 0.0 0.00 0.00 0.00 36 1009.5
20260504232045 27 17 3.2 0.0 0.00 0.00 0.00 37 1009.5
20260504231035 27 250 3.2 0.0 0.00 0.00 0.00 38 1009.5
20260504230054 26 357 3.2 0.0 0.00 0.00 0.00 37 1009.6
20260504225043 27 352 4.8 0.0 0.00 0.00 0.00 38 1009.6
20260504224042 27 342 4.8 0.0 0.00 0.00 0.00 37 1009.6
20260504223103 27 234 4.8 0.0 0.00 0.00 0.00 36 1010.0
20260504222053 27 229 4.8 0.0 0.00 0.00 0.00 36 1010.1
20260504221043 27 323 3.2 0.0 0.00 0.00 0.00 35 1010.1
20260504220054 27 76 4.8 0.0 0.00 0.00 0.00 37 1010.2
20260504215041 27 294 3.2 0.0 0.00 0.00 0.00 39 1010.1
20260504214028 27 303 3.2 0.0 0.00 0.00 0.00 35 1010.1
20260504213036 27 255 4.8 0.0 0.00 0.00 0.00 38 1010.2
20260504212043 26 120 3.2 0.0 0.00 0.00 0.00 37 1010.0
20260504211033 27 323 3.2 0.0 0.00 0.00 0.00 40 1010.1
20260504205120 26 226 3.2 0.0 0.00 0.00 0.00 40 1010.3
20260504204033 25 131 4.8 0.0 0.00 0.00 0.00 42 1010.3
20260504203043 26 262 3.2 0.0 0.00 0.00 0.00 39 1010.2
20260504202058 26 109 3.2 0.0 0.00 0.00 0.00 39 1010.4
20260504201030 25 122 3.2 0.0 0.00 0.00 0.00 39 1010.4
20260504200042 25 147 3.2 0.0 0.00 0.00 0.00 40 1010.4
20260504195053 26 256 3.2 0.0 0.00 0.00 0.00 40 1010.4
20260504194046 26 248 3.2 0.0 0.00 0.00 0.00 41 1010.4
20260504193033 26 259 4.8 0.0 0.00 0.00 0.00 39 1010.6
20260504192033 25 144 3.2 0.0 0.00 0.00 0.00 41 1010.5
20260504191036 26 119 3.2 0.0 0.00 0.00 0.00 43 1010.5
20260504190039 25 284 3.2 0.0 0.00 0.00 0.00 45 1010.7
20260504185101 24 135 3.2 0.0 0.00 0.00 0.00 43 1010.6
20260504184049 25 293 3.2 0.0 0.00 0.00 0.00 43 1010.7
20260504183050 24 149 3.2 0.0 0.00 0.00 0.00 43 1010.7
20260504182123 23 245 3.2 0.0 0.00 0.00 0.00 47 1010.6
20260504181106 24 262 3.2 0.0 0.00 0.00 0.00 46 1010.6
20260504180051 23 269 3.2 0.0 0.00 0.00 0.00 46 1010.7
20260504175051 23 254 3.2 0.0 0.00 0.00 0.00 47 1010.7
20260504174044 22 252 3.2 0.0 0.00 0.00 0.00 47 1010.7
20260504173029 23 148 3.2 0.0 0.00 0.00 0.00 49 1010.7
20260504172047 22 321 1.6 0.0 0.00 0.00 0.00 50 1010.7
20260504171048 22 114 3.2 0.0 0.00 0.00 0.00 50 1010.6
20260504151109 16 300 0.0 0.0 0.00 0.00 0.00 72 1010.1
20260504150121 16 300 0.0 0.0 0.00 0.00 0.00 72 1010.0
20260504141042 12 300 0.0 0.0 0.00 0.00 0.00 75 1009.6
20260504081039 12 300 0.0 0.0 0.00 0.00 0.00 76 1009.3
20260504045044 17 300 0.0 0.0 0.00 0.00 0.00 63 1009.4
20260504044038 17 302 0.0 0.0 0.00 0.00 0.00 62 1009.4
20260504043052 18 302 0.0 0.0 0.00 0.00 0.00 59 1009.4
20260504042042 18 302 0.0 0.0 0.00 0.00 0.00 58 1009.2
20260504041034 18 309 0.0 0.0 0.00 0.00 0.00 58 1009.3
20260504040038 19 308 0.0 0.0 0.00 0.00 0.00 58 1009.1
20260504035051 19 308 0.0 0.0 0.00 0.00 0.00 59 1009.1
20260504033042 20 256 0.0 0.0 0.00 0.00 0.00 61 1009.1
20260504032047 20 255 0.0 0.0 0.00 0.00 0.00 59 1009.1
20260504031031 21 255 0.0 0.0 0.00 0.00 0.00 59 1009.2
20260504030045 21 255 0.0 0.0 0.00 0.00 0.00 57 1009.1
20260504025043 22 255 0.0 0.0 0.00 0.00 0.00 55 1009.0
20260504024035 22 254 0.0 0.0 0.00 0.00 0.00 53 1009.1
20260504023215 23 260 0.0 0.0 0.00 0.00 0.00 52 1009.0